Location: Newark
(37.3981°N, 88.3750°W)
Time: 15:35:01
(UTC+00:00)

N. Korean satellite - Visible Passes

Search period start: 23 September 2019 00:00
Search period end: 03 October 2019 00:00
Orbit: 455 x 509 km, 97.2° (Epoch: 22 September)

Date Brightness Start Highest point End Pass type
(mag) Time Alt. Az. Time Alt. Az. Time Alt. Az.
24 Sep 9.3 11:12:03 10° NE 11:14:54 24° E 11:17:45 10° SSE visible
25 Sep 10.2 10:48:24 10° ENE 10:49:32 11° E 10:50:39 10° ESE visible
28 Sep 9.7 11:04:44 10° NE 11:07:19 19° E 11:09:54 10° SE visible
01 Oct 8.6 11:21:51 10° NNE 11:25:03 34° E 11:28:15 10° SSE visible
02 Oct 9.9 10:57:29 10° NE 10:59:41 16° E 11:01:55 10° SE visible
